Location: Beaver Dam Church
(34.5318°N, 88.9828°W)
Time: 09:51:29
(UTC+00:00)

COSMO-SKYMED 1 - Pass Details

Date: 29 October 2020
Orbit: 621 x 623 km, 97.9° (Epoch: 26 November)

Event Time Altitude Azimuth Distance (km) Brightness Sun altitude
Rises 23:33:58 0° 19° (NNE) 2,905 5.7 -6.7°
Reaches altitude 10° 23:36:14 10° 25° (NNE) 1,995 4.8 -7.1°
Maximum altitude 23:40:25 46° 99° (E) 834 2.8 -8.0°
Drops below altitude 10° 23:44:34 10° 173° (S) 1,981 5.2 -8.8°
Sets 23:46:49 0° 180° (S) 2,883 6.1 -9.3°
